Location: Gro� Glienicke
(52.4675°N, 13.1079°E)
Time: 02:32:33
(UTC+00:00)

Meteor 1-10 Rocket - Pass Details

Date: 06 July 2020
Orbit: 835 x 911 km, 81.3° (Epoch: 04 August)

Event Time Altitude Azimuth Distance (km) Brightness Sun altitude
Rises 23:18:04 0° 347° (NNW) 3,426 9.0 -15.0°
Reaches altitude 10° 23:20:32 10° 350° (N) 2,478 8.0 -15.0°
Maximum altitude 23:26:08 72° 75° (ENE) 886 4.3 -14.9°
Enters shadow 23:30:13 19° 157° (SSE) 1,904 5.5 -14.9°
